Location: LDNL
(36.4545°S, 141.6685°E)
Time: 04:56:09
(UTC+11:00)

A-11 Canister half - Pass Details

Date: 14 August 2022
Orbit: 1524 x 1684 km, 47.3° (Epoch: 05 October)

Event Time Altitude Azimuth Distance (km) Brightness Sun altitude
Rises 01:07:55 0° 241° (WSW) 4,721 - -67.1°
Reaches altitude 10° 01:11:13 10° 248° (WSW) 3,750 - -66.9°
Maximum altitude 01:19:42 38° 312° (NW) 2,246 - -66.2°
Drops below altitude 10° 01:28:24 10° 15° (NNE) 3,836 - -65.4°
Sets 01:31:50 0° 23° (NNE) 4,839 - -65.0°
